Location: Janeiro
(34.9957°N, 76.7652°W)
Time: 23:31:23
(UTC+00:00)

Daily predictions for brighter satellites

Satellite Brightness Start Highest point End
(mag) Time Altitude Azimuth Time Altitude Azimuth Time Altitude Azimuth
Radarsat Rocket 4.3 22:14:32 10° SSE 22:20:44 77° WSW 22:26:35 10° NNW
YAOGAN 6 4.4 22:20:43 10° E 22:22:08 12° ENE 22:23:34 10° NE
STARLINK-48 3.5 22:23:54 10° SW 22:27:45 70° SE 22:31:38 10° NE
Cosmos 2297 3.9 22:25:46 10° N 22:31:14 47° ENE 22:36:38 10° SE
Lacrosse 5 2.5 22:27:08 10° S 22:31:51 39° ESE 22:36:34 10° NE
OAO 3 Rocket 3.2 22:28:56 10° W 22:33:37 79° S 22:38:21 10° ESE
Shenzhou-11 Module 1.6 22:34:48 10° WNW 22:37:33 88° NNE 22:40:16 10° ESE
AQUARIUS 4.1 22:34:00 10° SSE 22:38:27 71° ENE 22:42:56 10° N
Cosmos 1428 Rocket 4.5 22:35:04 10° S 22:41:08 65° E 22:47:19 10° NNE
Cosmos 1461 4.5 22:42:59 10° SSE 22:45:24 16° ESE 22:46:52 13° E
NOSS 7 (H) 4.5 22:42:20 10° SW 22:46:02 74° WNW 22:49:06 10° NNE
IRS-1C Rocket 4.3 22:43:20 10° S 22:48:35 77° WSW 22:53:52 10° NNW
Cosmos 1782 Rocket 3.5 22:44:54 10° N 22:49:11 61° E 22:53:28 10° SSE
CZ-3B R/B 3.2 22:47:15 10° SSW 22:49:58 17° SSE 22:53:39 10° ESE
Cosmos 1867 4.1 22:45:27 10° NNW 22:50:29 36° NE 22:55:27 10° ESE
SKYMED 2 3.9 22:47:23 10° NNE 22:51:34 46° E 22:55:44 10° S
Cosmos 1743 2.8 22:52:03 10° N 22:55:53 55° E 22:59:40 10° SSE
Abrixas rocket 3.6 22:53:47 10° W 22:56:24 26° NNW 22:58:23 14° NNE
STARLINK-61 3.8 22:53:44 10° SSW 22:57:37 52° SE 23:00:09 20° ENE
Cosmos 1943 3.9 22:53:28 10° SSE 22:58:28 34° ESE 23:02:18 16° NE
Cosmos 1553 Rocket 4.2 22:53:31 10° N 22:59:42 48° E 23:05:51 10° SSE
SMAP 3.7 22:55:26 10° S 23:00:00 59° W 23:04:36 10° NNW
Cosmos 676 Rocket 3.9 22:55:56 10° SSW 23:01:06 83° ESE 23:06:18 10° NNE
Sakura Rocket 4.4 22:56:34 10° WSW 23:01:06 43° S 23:07:12 10° ESE
CZ-4C R/B 2.3 22:56:48 10° S 23:01:19 45° ESE 23:05:04 17° NE
Cosmos 2026 Rocket 4.2 22:56:03 10° SSW 23:02:05 73° W 23:08:10 10° N
OAO 2 Rocket 3.7 22:57:52 10° W 23:02:46 60° SSW 23:07:42 10° ESE
Cosmos 2221 Rocket 3.6 22:59:21 10° S 23:03:45 63° E 23:08:09 10° NNE
Okean 2 Rocket 3.6 23:00:25 10° N 23:04:36 37° E 23:08:48 10° SSE
STARLINK-71 4.3 23:01:19 10° SSW 23:05:00 36° SE 23:06:47 24° E
STARLINK-79 4.4 23:02:52 10° SSW 23:06:30 33° SE 23:08:06 24° E
Cosmos 1954 Rocket 3.9 23:01:52 10° SSW 23:07:01 89° ESE 23:12:14 10° NNE
STARLINK-78 4.3 23:04:28 10° SSW 23:08:09 35° SE 23:09:42 25° E
STARLINK-57 4.2 23:06:08 10° SSW 23:09:52 38° SE 23:11:25 27° E
Sich 1 Rocket 3.4 23:05:51 10° N 23:10:16 81° E 23:14:38 10° S
STARLINK-49 4.2 23:07:42 10° SSW 23:11:25 38° SE 23:12:51 28° E
Meteor 1-18 Rocket 4.4 23:05:46 10° SSW 23:11:29 75° W 23:17:07 10° N
STARLINK-27 4.2 23:09:20 10° SSW 23:13:04 39° SE 23:14:28 29° E
Okean 1 4.2 23:09:17 10° SSW 23:13:08 50° W 23:17:01 10° N
Cosmos 2084 Rocket 4.3 23:09:32 10° S 23:13:25 32° ESE 23:14:38 27° E
USA 116 4.4 23:08:40 10° NNE 23:13:42 52° E 23:18:17 10° S
STARLINK-74 4.1 23:10:56 10° SSW 23:14:42 41° SE 23:16:02 30° E
Cosmos 2369 Rocket 2.9 23:11:11 10° N 23:16:09 31° ENE 23:19:34 17° ESE
STARLINK-39 4.0 23:12:35 10° SSW 23:16:23 42° SE 23:17:39 32° E
OAO 3 Copernicus 4.3 23:11:51 10° W 23:16:56 84° S 23:19:40 28° E
SL-16 R/B 3.9 23:12:51 10° WSW 23:17:48 30° WNW 23:22:48 10° N
STARLINK 4.0 23:14:12 10° SSW 23:18:01 44° SE 23:19:15 33° E
STARLINK-42 3.8 23:15:53 10° SSW 23:19:45 49° SE 23:20:59 36° E
ADEOS Rocket 4.5 23:23:02 15° ESE 23:23:02 15° ESE 23:24:46 10° SE
STARLINK-21 3.8 23:17:27 10° SSW 23:21:19 49° SE 23:22:26 37° E
STARLINK-45 3.6 23:19:14 10° SSW 23:23:10 58° SE 23:24:21 40° ENE
Cosmos 1603 3.6 23:19:12 10° SSW 23:24:53 83° ESE 23:29:35 16° NNE
STARLINK-75 3.5 23:20:56 10° SW 23:24:54 65° SE 23:26:04 42° ENE
OFEQ 5 4.3 23:25:25 66° ESE 23:25:41 77° SSE 23:28:24 10° WSW
GPS 2-05 Rocket1 2.1 23:23:11 10° WSW 23:25:54 77° S 23:25:54 77° S
STARLINK-76 3.7 23:22:21 10° SSW 23:26:17 55° SE 23:27:14 43° E
IRIDIUM 114 4.4 23:21:32 10° SSE 23:26:34 52° E 23:31:38 10° NNE
Cosmos 1674 Rocket 3.9 23:22:38 10° SSE 23:26:48 41° E 23:27:32 37° ENE
STARLINK-26 3.1 23:23:49 10° SW 23:27:19 89° NW 23:28:07 51° NE
FengYun 1-2 T 4.1 23:22:03 10° SSE 23:27:32 84° ENE 23:33:03 10° NNW
Aureole 3 Rocket 3.1 23:28:30 36° SE 23:28:30 36° SE 23:30:58 10° SSE
STARLINK 3.6 23:23:59 10° SSW 23:27:55 58° SE 23:28:48 45° E
Cosmos 405 Rocket 2.7 23:28:13 46° NE 23:28:39 49° E 23:32:17 10° SSE
STARLINK-32 3.6 23:25:38 10° SSW 23:29:34 60° SE 23:30:25 48° E
STARLINK-40 3.5 23:27:15 10° SSW 23:31:13 63° SE 23:31:59 50° E
Cosmos 1417 Rocket 4.4 23:25:26 10° N 23:31:36 85° E 23:37:46 10° S
Envisat 3.6 23:26:57 10° S 23:31:56 59° W 23:36:57 10° NNW
STARLINK-44 3.5 23:28:53 10° SW 23:32:52 66° SE 23:33:35 53° E
Delta 2 Rocket 3.6 23:28:15 10° W 23:33:28 82° N 23:34:57 44° E
CZ-4 R/B 1.1 23:29:58 10° SSE 23:33:51 80° ENE 23:37:43 10° N
Cosmos 1741 Rocket 4.0 23:28:44 10° S 23:33:52 57° ESE 23:36:00 33° NE
STARLINK-37 3.4 23:30:38 10° SW 23:34:37 73° SE 23:35:19 56° ENE
IRIDIUM 103 4.2 23:30:34 10° S 23:35:43 66° E 23:40:53 10° N
STARLINK-36 3.4 23:32:10 10° SW 23:36:09 71° SE 23:36:45 59° ENE
USA 81 4.2 23:31:51 10° SSE 23:36:54 50° E 23:38:59 32° NE
YAOGAN 1 2.4 23:32:48 10° SSE 23:37:04 65° ENE 23:41:22 10° N
Cosmos 1943 Rocket 2.1 23:32:09 10° NNW 23:37:41 57° ENE 23:43:08 10° SE
STARLINK-41 3.4 23:33:47 10° SW 23:37:46 72° SE 23:38:17 62° E
STARLINK-64 3.4 23:35:27 10° SW 23:39:26 76° SE 23:39:53 66° ENE
COSMO-SKYMED 1 3.6 23:35:24 10° N 23:39:33 45° WNW 23:43:40 10° SW
Cosmos 1300 Rocket 3.3 23:35:37 10° N 23:39:54 68° E 23:44:11 10° SSE
Okean-O 4.1 23:36:04 10° SSW 23:40:11 38° W 23:44:19 10° NNW
NOAA 15 4.4 23:35:42 10° SSE 23:40:56 77° ENE 23:46:11 10° N
STARLINK-35 3.4 23:37:06 10° SW 23:41:06 80° SE 23:41:31 69° ENE
STARLINK-51 3.3 23:38:46 10° SW 23:42:47 84° SE 23:43:08 73° ENE
Cosmos 1378 Rocket 4.5 23:39:07 10° SSE 23:41:46 32° SE 23:41:46 32° SE
STARLINK-30 3.3 23:40:25 10° SW 23:44:25 87° SE 23:44:43 76° ENE
CSL-04 Rocket 3.4 23:40:43 10° SSE 23:45:58 77° ENE 23:51:17 10° N
STARLINK-33 3.3 23:42:03 10° SW 23:46:04 90° SSW 23:46:18 79° NE
Meteor 2-4 Rocket 3.9 23:41:35 10° SSW 23:47:29 79° W 23:53:17 10° N
STARLINK-50 3.4 23:43:43 10° SW 23:47:44 87° NW 23:47:54 81° NNE
STARLINK 3.4 23:45:08 10° SW 23:49:07 85° SE 23:49:07 85° SE
Cosmos 1850 Rocket 3.9 23:45:35 10° SSW 23:50:49 88° ESE 23:52:59 37° NNE
STARLINK-56 3.4 23:47:01 10° SW 23:51:02 81° NW 23:51:05 81° NNW
Starlink (trailer) 3.5 23:48:41 10° SW 23:52:40 78° NW 23:52:40 78° NW
USA 267 3.2 23:46:59 13° SE 23:53:02 89° NE 23:59:36 10° NW
IRIDIUM 106 4.3 23:48:47 10° S 23:53:59 82° W 23:59:09 10° N
STARLINK-38 3.6 23:50:19 10° SW 23:54:15 74° WNW 23:54:15 74° WNW
Cosmos 1975 4.2 23:50:52 10° NNW 23:54:37 38° W 23:58:20 10° SSW
YAOGAN 6 4.4 23:52:06 10° SSW 23:55:16 31° W 23:58:31 10° NNW
BREEZE-M DEB (TANK) 4.3 23:54:28 10° NW 23:55:24 15° NNW 23:55:24 15° NNW
